User: anonymous   Login
Location: Oshawa
(43.9000°N, 78.8670°W)
Time: 23:43:09
(UTC-04:00)
Language:

S-56A Canister/Altair - Orbit

View from above orbital plane
View from above orbital plane
View from above satellite
View from above satellite

Ground track
Ground track

The orbit data is extracted from the following two-line orbital elements,

1 00082U 61004B   15146.53361171  .00000011  00000-0  45907-4 0  9996
2 00082 038.8530 201.8042 1172312 163.0470 201.3082 12.25699933580901
Epoch (UTC): 26 May 2015 12:48:24
Eccentricity: 0.1172312
inclination: 38.8530°
perigee height: 636 km
apogee height: 2499 km
right ascension of ascending node: 201.8042°
argument of perigee: 163.0470°
revolutions per day: 12.25699933
mean anomaly at epoch: 201.3082°
orbit number at epoch: 58090

The dashed part of the orbit path shows where the satellite is in the earth's shadow,  

DLR